Powrót do katalogu

STARLINK-36065

AktywnyŁącznośćVLEO
NORAD 66898·PAYLOAD·🇺🇸 United States

Wystrzelony Dec 4, 2025 z Vandenberg Space Force Base

Loading…

Następne Przeloty (najbliższe 24 godziny)

TLE

ŚwieżeSource: CelesTrak SupGP

Epoka: Sep 14, 2026, 22:58 UTC

1 66898C 25283W   26257.95743056  .00003479  00000+0  10275-3 0  2575
2 66898  53.1579 221.2704 0001425 101.6460 308.4165 15.34397439    13

Śledź STARLINK-36065 w czasie rzeczywistym z AllMySat

Download on the App Store